Cosmos 1782 - Orbit

View from above orbital plane
View from above orbital plane
View from above satellite
View from above satellite

Ground track
Ground track

The orbit data is extracted from the following two-line orbital elements,

1 16986U 86074A   13139.14859579  .00003174  00000-0  24775-3 0  4729
2 16986 082.5065 125.6340 0013326 026.0740 334.1153 15.00766909446842
Epoch (UTC): 19 May 2013 03:33:58
Eccentricity: 0.0013326
inclination: 82.5065°
perigee height: 555 km
apogee height: 574 km
right ascension of ascending node: 125.6340°
argument of perigee: 26.0740°
revolutions per day: 15.00766909
mean anomaly at epoch: 334.1153°
orbit number at epoch: 44684

The dashed part of the orbit path shows where the satellite is in the earth's shadow,  

Developed and maintained by Chris Peat, Heavens-Above GmbH. Please read the updated FAQ before sending e-mail. Imprint. DLR